STARLINK-37043, 68246

Orbit data source: Space-Track

STARLINK-37043, 68246 is a payload satellite owned by SpaceX/Seattle (US) in LEO that was launched on Tue, 17 Mar 2026 UTC via an FALCON 9 launch vehicle from the Air Force Eastern Test Range (AFETR). Payload-class satellites include a variety of spacecraft equipped with specific instruments for various scientific and technological missions. These include communications satellites like Starlink; space stations such as the ISS; scientific satellites like the Hubble; Earth observation satellites from companies like Planet Labs, Umbra, and HawkEye 360; GPS; miniature CubeSats for education and research; and military/defense satellites.

Loading next visibility...
Identifier
68246, 2026-054Q
Orbit
LEO
Country
Flag of USUS
Related business
Manufacturer
SpaceX/Seattle
Mission
Operational spacecraft
Bus & Motor
STARLINK V2MO, Unknown motor
Mass
575 kg wet, ~530 kg dry
Launch date (UTC)
2026-03-17 (2 months ago)
Launch vehicle
FALCON 9
Launch site
Air Force Eastern Test Range (AFETR)
Object type
Payload
Rocket body
Debris
Shape & HBR
Unknown shape, 17.7 m
Radar Cross Section
RCS unknown

Expand to show TLE details & history
Last TLE update: 8 hours ago

TLE from 8 hours ago
0 STARLINK-37043
1 68246U 26054Q   26145.42517128  .00072597  00000-0  16589-2 0  9992
2 68246  53.1590 298.1067 0001131  97.5804 262.5331 15.42214970 10775
Epoch: 2026-05-25T10:12Z
TLE epoch observation values (Epoch: 2026-05-25T10:12:14.798Z)
Latitude
0.00002°
Longitude
-97.9681°
Altitude
440.578 km
Speed
7.649 km/s
True Right ascension
19h 52m 25s
True Declination
0° 00' 00"
Sunlit
Object was in full shadow at epoch
Visualization orbit readout
Latitude
Unknown
Longitude
Unknown
Altitude
Unknown
Speed
Unknown
Apparent Right ascension
Unknown
Apparent Declination
Unknown
Sunlit
N/A
Visualization observer readout
Local Sidereal Time
03:03:48
Azimuth
Unknown
Elevation
Unknown
Doppler factor
Unknown
Orbital elements
Apogee altitude
440.603 km
Perigee altitude
439.06 km
Semi-major axis
6,817.969 km
Eccentricity
0.00011
Inclination
53.159°
RAAN
298.1067°
Arg. of periapsis
97.5804°
True anomaly
262.52025°
Mean anomaly
262.5331°
Eccentric anomaly
262.52667°
Mean motion
3.85532 °/min
Orbital period
93.38 mins
BSTAR
0.0016589
Loading maneuver chart data...
Computing Atmospheric mass density...
Loading historical data...
Loading historical data...
Loading historical data...
Loading historical data...
Loading historical data...
Loading historical data...
Loading historical data...

Documentation

Showing up to 5 results
|